Preview of NWS' New Version of Forecast
This preview is not operational and should not be used for support decisions.

Regional Weather Roundup (RWR)

Issued by National Weather Service (NWS)

                            
000
ASUS46 KSEW 190010
RWRWA 

WASHINGTON REGIONAL WEATHER ROUNDUP
NATIONAL WEATHER SERVICE SEATTLE WA
400 PM PST MON FEB 18 2019

NOTE:"FAIR" INDICATES FEW OR NO CLOUDS BELOW 12,000 FEET WITH NO 
SIGNIFICANT WEATHER AND/OR OBSTRUCTIONS TO VISIBILITY.

WAZ507-509-555>559-190100-
SEATTLE, TACOMA, EVERETT, AND VICINITY
  
CITY           SKY/WX    TMP DP  RH WIND       PRES   REMARKS
EVERETT        LGT RAIN  38  34  85 E5        30.35F                  
6HR MIN TEMP:  36; 6HR MAX TEMP:  39; 6HR PCP: TRACE;                

BOEING FIELD   CLOUDY    43  36  76 E5        30.36S                  
6HR MIN TEMP:  38; 6HR MAX TEMP:  44; 6HR PCP:  0.02;                

RENTON         CLOUDY    43  34  70 E5        30.36S                  
6HR MIN TEMP:  38; 6HR MAX TEMP:  44;                                

SEATAC AIRPORT PTSUNNY   45  33  63 SW6       30.34F                  
6HR MIN TEMP:  38; 6HR MAX TEMP:  45;                                

JBLM-MCCHORD   SUNNY     45  40  82 SW6       30.35S                  
6HR MIN TEMP:  38; 6HR MAX TEMP:  45;                                

PUYALLUP       PTSUNNY   46  36  66 SW6       30.35R                  
BREMERTON      CLOUDY    42  32  67 CALM      30.34F                  
6HR MIN TEMP:  36; 6HR MAX TEMP:  42;                                

JBLM-FT LEWIS  NOT AVBL                                               
TACOMA NARROWS MOSUNNY   43  34  70 VRB5      30.35S                  
6HR MIN TEMP:  38; 6HR MAX TEMP:  44; 6HR PCP: TRACE;                

$$
 
WAZ001-503-506-510-514-515-190100-
NORTH INTERIOR
  
CITY           SKY/WX    TMP DP  RH WIND       PRES   REMARKS
BELLINGHAM     CLOUDY    35  21  56 N7        30.37S                  
6HR MIN TEMP:  33; 6HR MAX TEMP:  36;                                

FRIDAY HARBOR  CLOUDY    41  29  62 NE5       30.36F                  
6HR MIN TEMP:  39; 6HR MAX TEMP:  43;                                

EASTSOUND      CLOUDY    39  30  70 VRB5      30.36F                  
PORT ANGELES   CLOUDY    40  33  76 E6        30.35F                  
6HR MIN TEMP:  37; 6HR MAX TEMP:  42;                                

EDIZ HOOK      CLOUDY    41  33  73 NE3       30.36S                  
6HR MIN TEMP:  41; 6HR MAX TEMP:  43;                                

PORT TOWNSEND  CLOUDY    41  37  87 E6        30.35F                  
NAS WHIDBEY    CLOUDY    43  32  65 E5        30.40F                  
6HR MIN TEMP:  38; 6HR MAX TEMP:  45;                                

ARLINGTON      CLOUDY    38  32  79 CALM      30.37F                  
6HR MIN TEMP:  33; 6HR MAX TEMP:  40;                                

BURLINGTON     CLOUDY    37  27  65 CALM      30.37S                  
$$
 
WAZ020-022-039-040-504-511-512-190100-
SOUTHWEST INTERIOR
  
CITY           SKY/WX    TMP DP  RH WIND       PRES   REMARKS
SHELTON        MOSUNNY   43  33  68 SW9       30.31F                  
6HR MIN TEMP:  34; 6HR MAX TEMP:  46;                                

OLYMPIA        PTSUNNY   45  33  63 SE3       30.35S                  
6HR MIN TEMP:  36; 6HR MAX TEMP:  45; 6HR PCP: TRACE;                

CHEHALIS       CLOUDY    45  39  81 W6        30.36R                  
KELSO          LGT RAIN  41  35  79 S8        30.39S                  
6HR MIN TEMP:  35; 6HR MAX TEMP:  43; 6HR PCP: TRACE;                

VANCOUVER      CLOUDY    43  32  65 CALM      30.38F                  
6HR MIN TEMP:  33; 6HR MAX TEMP:  43;                                

SCAPPOOSE, OR  CLOUDY    43  35  73 E5        30.38F                  
6HR MIN TEMP:  34; 6HR MAX TEMP:  44;                                

PORTLAND, OR   CLOUDY    44  32  62 VRB3      30.39F                  
6HR MIN TEMP:  34; 6HR MAX TEMP:  44;                                

$$
 
WAZ021-516-517-190100-
WASHINGTON COAST
  
CITY           SKY/WX    TMP DP  RH WIND       PRES   REMARKS
FORKS          CLOUDY    43  35  73 W3        30.34F                  
6HR MIN TEMP:  37; 6HR MAX TEMP:  44; 6HR PCP:  0.06;                

HOQUIAM        SUNNY     47  38  71 W10       30.36F                  
6HR MIN TEMP:  38; 6HR MAX TEMP:  47; 6HR PCP: TRACE;                

ASTORIA, OR    PTSUNNY   46  38  73 NW8       30.37F                  
6HR MIN TEMP:  40; 6HR MAX TEMP:  46; 6HR PCP: TRACE;                

$$
 
WAZ019-023-024-040-567>569-190100-
CASCADE MOUNTAINS AND COLUMBIA GORGE
  
CITY           SKY/WX    TMP DP  RH WIND       PRES   REMARKS
STAMPEDE PASS  CLOUDY    26  23  88 VRB7      30.17S                  
6HR MIN TEMP:  25; 6HR MAX TEMP:  26; 6HR PCP: TRACE;                

TROUTDALE, OR  CLOUDY    44  32  62 CALM      30.39F                  
6HR MIN TEMP:  36; 6HR MAX TEMP:  44;                                

HOOD RIVER, OR CLOUDY    39  30  70 W6        30.32F                  
THE DALLES, OR MOSUNNY   34  27  75 NE6       30.34F                  
6HR MIN TEMP:  34; 6HR MAX TEMP:  38;                                

$$

WAZ026-027-041>044-520-521-190100-
EAST SLOPES
  
CITY           SKY/WX    TMP DP  RH WIND       PRES   REMARKS
OMAK           SUNNY     29  13  51 N5        30.29F                  
6HR MIN TEMP:  23; 6HR MAX TEMP:  30;                                

WENATCHEE      SUNNY     26  13  57 SE7       30.30F                  
6HR MIN TEMP:  22; 6HR MAX TEMP:  28;                                

ELLENSBURG     SUNNY     30  19  63 E9        30.24F                  
6HR MIN TEMP:  30; 6HR MAX TEMP:  37;                                

YAKIMA         SUNNY     31  21  66 CALM      30.30F                  
6HR MIN TEMP:  28; 6HR MAX TEMP:  32;                                

SUNNYSIDE ARPT PTCLDY    33  25  72 NE7       30.32                   
6HR MIN TEMP:  28; 6HR MAX TEMP:  34;                                

YAKIMA TC      FAIR      31  22  68 S7        30.26F                  
6HR MIN TEMP:  25; 6HR MAX TEMP:  32;                                

$$

WAZ028-034-035-190100-
COLUMBIA BASIN
  
CITY           SKY/WX    TMP DP  RH WIND       PRES   REMARKS
EPHRATA        SUNNY     27  13  55 CALM      30.31S                  
6HR MIN TEMP:  22; 6HR MAX TEMP:  30;                                

MOSES LAKE     SUNNY    N/A N/A N/A W5        30.32F                  
PASCO          CLOUDY    32  23  69 E7        30.36F                  
6HR MIN TEMP:  26; 6HR MAX TEMP:  32;                                

RICHLAND ARPT  CLOUDY    33  25  73 E6        30.36                   
6HR MIN TEMP:  28; 6HR MAX TEMP:  33;                                

HERMISTON, OR  CLOUDY    37  24  59 E3        30.33F                  
6HR MIN TEMP:  32; 6HR MAX TEMP:  37;                                

$$

WAZ036>038-190100-
NORTHEAST WASHINGTON
  
CITY           SKY/WX    TMP DP  RH WIND       PRES   REMARKS
SPOKANE GEIGER PTSUNNY   21  10  62 W5        30.25S                  
6HR MIN TEMP:  16; 6HR MAX TEMP:  24;                                

SPOKANE FELTS  PTSUNNY   25  11  55 CALM      30.28S                  
6HR MIN TEMP:  18; 6HR MAX TEMP:  27;                                

FAIRCHILD AFB  PTSUNNY   19   8  62 W6        30.23F                  
6HR MIN TEMP:  14; 6HR MAX TEMP:  22;                                

COEURDALENE,ID PTSUNNY   24   9  52 CALM      30.26S                  
6HR MIN TEMP:  20; 6HR MAX TEMP:  31;                                

DEER PARK      CLOUDY    24   7  48 CALM      30.26S                  
6HR MIN TEMP:  12; 6HR MAX TEMP:  24;                                

$$

WAZ029>033-190100-
SOUTHEAST WASHINGTON
  
CITY           SKY/WX    TMP DP  RH WIND       PRES   REMARKS
PULLMAN        CLOUDY    21  12  68 NE5       30.26S                  
6HR MIN TEMP:  12; 6HR MAX TEMP:  22;                                

LEWISTON, ID   FLURRIES  27  18  69 SE9       30.32S                  
6HR MIN TEMP:  26; 6HR MAX TEMP:  30; 6HR PCP: TRACE;                

WALLA WALLA    CLOUDY    32  22  66 SW3       30.32S                  
6HR MIN TEMP:  26; 6HR MAX TEMP:  32;                                

PENDLETON, OR  PTSUNNY   31  24  75 NE3       30.29F                  
6HR MIN TEMP:  28; 6HR MAX TEMP:  33;                                

$$